Retour au catalogue

STARLINK-36986

ActifCommunicationsSSO
NORAD 68207·PAYLOAD·🇺🇸 United States

Lancé Mar 17, 2026 depuis Vandenberg Space Force Base

Loading…

Prochains Passages (prochaines 24 heures)

TLE

FraisSource: CelesTrak SupGP

Époque: Sep 14, 2026, 22:44 UTC

1 68207C 26053A   26257.94770833  .00049114  00000+0  15253-2 0  2575
2 68207  97.2847 131.7238 0001774  97.0056  35.2375 15.33400277    11

Suivez STARLINK-36986 en temps réel avec AllMySat

Download on the App Store